Flag for U.S.A. Weather past 2 weeks in Sheboygan, Wisconsin, U.S.A.

Now
56 °F

Clear.


Feels Like: 55 °F
Forecast: 58 / 77 °F
Wind: 6 mph from West

Location: Sheboygan County Memorial Airport

Current Time: Jul 31, 2014 at 4:12:23 AM

Latest Report: Jul 31, 2014 at 2:53 AM


Visibility: 9 mi

Pressure: 29.97 "Hg

Humidity: 97%

Dew point: 55 °F

Location of SheboyganLocation

Historic Weather in Sheboygan — Graph

°F

Sheboygan temperature yesterday

Maximum temperature yesterday: 74 °F (at 3:53 PM)
Minimum temperature yesterday: 57 °F (at 2:53 AM)
Average temperature yesterday: 64 °F

Past Weeks' High & Low Weather Summary

 TemperatureHumidityPressure
High86 °F (Jul 22, 6:53 PM)97% (Jul 19, 2:53 AM)30.20 "Hg (Jul 19, 2:53 AM)
Low50 °F (Jul 17, 3:53 AM)37% (Jul 17, 3:53 PM)29.67 "Hg (Jul 27, 11:53 AM)
Average66 °F72%30.01 "Hg
* Reported Jul 16 2:53 AM — Jul 31 2:53 AM, Sheboygan, Weather by CustomWeather, © 2014

Note: Actual official high and low records may vary slightly from our data, if they occured in-between our weather recording intervals... More about our weather records

Advertising

Sheboygan weather history for previous 24 hours

 ConditionsComfort  
Time TempWeatherWind HumidityBarometerVisibility
2:53 AM
Jul 31
56 °FClear.6 mph97%29.97 "Hg9 mi
1:53 AM57 °FPassing clouds.5 mph93%29.98 "Hg10 mi
12:53 AM56 °FClear.6 mph97%29.99 "Hg10 mi
11:53 PM
Jul 30
58 °FPassing clouds.No wind93%30.00 "Hg10 mi
10:53 PM57 °FPassing clouds.3 mph87%29.99 "Hg10 mi
9:53 PM58 °FClear.5 mph78%30.00 "Hg10 mi
8:53 PM60 °FSunny.5 mph72%29.99 "Hg10 mi
7:53 PM64 °FSunny.6 mph68%29.99 "Hg10 mi
6:53 PM68 °FSunny.6 mph61%29.99 "Hg10 mi
5:53 PM73 °FPassing clouds.3 mph48%29.99 "Hg10 mi
4:53 PM74 °FPassing clouds.9 mph46%30.00 "Hg10 mi
3:53 PM74 °FPartly sunny.6 mph45%30.01 "Hg10 mi
2:53 PM72 °FScattered clouds.7 mph46%30.02 "Hg10 mi
1:53 PM73 °FScattered clouds.6 mph46%30.03 "Hg10 mi
12:53 PM72 °FPartly sunny.8 mph53%30.03 "Hg10 mi
11:53 AM69 °FPassing clouds.3 mph59%30.05 "Hg10 mi
10:53 AM66 °FScattered clouds.3 mph68%30.05 "Hg10 mi
9:53 AM65 °FSunny.7 mph70%30.05 "Hg10 mi
8:53 AM64 °FSunny.8 mph75%30.04 "Hg10 mi
7:53 AM61 °FPassing clouds.7 mph87%30.04 "Hg10 mi
6:53 AM58 °FFog.5 mph93%30.02 "Hg6 mi
5:53 AM57 °FFog.6 mph93%30.01 "Hg5 mi
5:02 AM58 °FMostly cloudy.6 mph93%30.01 "Hg8 mi
4:53 AM58 °FMostly cloudy.5 mph93%29.99 "Hg9 mi
Weather by CustomWeather, © 2014

See weather overviewHow to use our weather pages